Weather History for KLVJ - September, 2013

Change the Weather History Date:

Sunday, September 22, 2013

  Actual Average (KHOU) Record (KHOU)
Temperature  
Mean Temperature 76 °F 78 °F  
Max Temperature 84 °F 88 °F 100 °F (2005)
Min Temperature 69 °F 68 °F 49 °F (1983)
Degree Days  
Heating Degree Days 0 0  
Month to date heating degree days 0  
Since 1 July heating degree days 0  
Cooling Degree Days 12 13  
Month to date cooling degree days 348  
Year to date cooling degree days 2730  
Growing Degree Days 26 (Base 50)    
Moisture  
Dew Point 61 °F    
Average Humidity 60    
Maximum Humidity 79    
Minimum Humidity 44    
Precipitation  
Precipitation 0.00 in 0.12 in 3.14 in (1965)
Month to date precipitation 3.09  
Year to date precipitation 34.96  
Sea Level Pressure  
Sea Level Pressure 29.80 in    
Wind  
Wind Speed 8 mph (NE)    
Max Wind Speed 16 mph    
Max Gust Speed 23 mph    
Visibility 10 miles    
Events      
T = Trace of Precipitation, MM = Missing Value Source: NWS Daily Summary

Daily Weather History Graph

Daily Weather History Graph

Search for Another Location

Airport or City:

Trip Planner

Search our weather history database for the weather conditions in past years. The results will help you decide how hot, cold, wet, or windy it might be!

Date:

Astronomy

Sep. 22, 2013 Rise Set
Actual Time 7:09 AM CDT 7:17 PM CDT
Civil Twilight 6:45 AM CDT 7:40 PM CDT
Nautical Twilight 6:18 AM CDT 8:08 PM CDT
Astronomical Twilight 5:50 AM CDT 8:36 PM CDT
Moon 9:26 PM CDT (9/22) 10:13 AM CDT (9/22)
Length of Visible Light 12h 55m
Length of Day
12h 07m
Waning Gibbous, 88% of the Moon is Illuminated
Sep 22
Waning Gibbous
Sep 26
Last Quarter
Oct 4
New
Oct 11
First Quarter
Oct 18
Full

Hourly Weather History & Observations

Time (CDT) Temp. Heat Index Dew Point Humidity Pressure Visibility Wind Dir Wind Speed Gust Speed Precip Events Conditions
12:53 AM 73.9 °F - 66.0 °F 76% 29.81 in 10.0 mi NNE 4.6 mph - N/A   Overcast
1:53 AM 73.0 °F - 66.0 °F 79% 29.81 in 10.0 mi NE 5.8 mph - N/A   Overcast
2:53 AM 73.0 °F - 66.0 °F 79% 29.80 in 10.0 mi NNE 4.6 mph - N/A   Overcast
3:53 AM 73.0 °F - 64.0 °F 73% 29.79 in 10.0 mi NNE 11.5 mph - N/A   Overcast
4:53 AM 72.0 °F - 62.1 °F 71% 29.79 in 10.0 mi NNE 9.2 mph - N/A   Overcast
5:53 AM 71.1 °F - 60.1 °F 68% 29.79 in 10.0 mi NNE 8.1 mph - N/A   Overcast
6:53 AM 70.0 °F - 60.1 °F 71% 29.80 in 10.0 mi NNE 6.9 mph - N/A   Overcast
7:53 AM 69.1 °F - 57.9 °F 68% 29.81 in 10.0 mi NNE 9.2 mph - N/A   Mostly Cloudy
8:53 AM 72.0 °F - 57.9 °F 61% 29.82 in 10.0 mi NNE 10.4 mph 17.3 mph N/A   Clear
9:53 AM 73.0 °F - 60.1 °F 64% 29.83 in 10.0 mi NE 11.5 mph - N/A   Clear
10:53 AM 78.1 °F - 62.1 °F 58% 29.84 in 10.0 mi NE 16.1 mph 19.6 mph N/A   Clear
11:53 AM 81.0 °F 82.2 °F 63.0 °F 54% 29.85 in 10.0 mi NNE 10.4 mph 19.6 mph N/A   Partly Cloudy
12:53 PM 82.0 °F 83.1 °F 63.0 °F 52% 29.83 in 10.0 mi NE 10.4 mph 20.7 mph N/A   Scattered Clouds
1:53 PM 82.0 °F 83.0 °F 62.1 °F 51% 29.80 in 10.0 mi NNE 13.8 mph 23.0 mph N/A   Partly Cloudy
2:53 PM 84.0 °F 84.5 °F 62.1 °F 47% 29.78 in 10.0 mi NNE 12.7 mph 19.6 mph N/A   Scattered Clouds
3:53 PM 84.9 °F 85.0 °F 61.0 °F 44% 29.76 in 10.0 mi NE 9.2 mph 18.4 mph N/A   Mostly Cloudy
4:53 PM 82.9 °F 83.2 °F 60.1 °F 46% 29.75 in 10.0 mi NE 13.8 mph 18.4 mph N/A   Overcast
5:53 PM 82.0 °F 82.0 °F 57.9 °F 44% 29.76 in 10.0 mi NE 8.1 mph - N/A   Overcast
6:53 PM 79.0 °F - 57.9 °F 48% 29.77 in 10.0 mi NNE 6.9 mph - N/A   Overcast
7:53 PM 78.1 °F - 61.0 °F 56% 29.79 in 10.0 mi East 3.5 mph - N/A   Overcast
8:53 PM 79.0 °F - 57.0 °F 47% 29.80 in 10.0 mi ENE 6.9 mph - N/A   Overcast
9:53 PM 78.1 °F - 60.1 °F 54% 29.80 in 10.0 mi ENE 5.8 mph - N/A   Overcast
11:53 PM 77.0 °F - 62.1 °F 60% 29.80 in 10.0 mi Calm Calm - N/A   Overcast